Location: Tannau
(47.7000°N, 9.6000°E)
Time: 11:54:12
(UTC+01:00)

ISS - Visible Passes

Search period start: 01 December 2021 00:00
Search period end: 11 December 2021 00:00
Orbit: 417 x 423 km, 51.6° (Epoch: 01 December)

Date Brightness Start Highest point End Pass type
(mag) Time Alt. Az. Time Alt. Az. Time Alt. Az.
01 Dec -3.0 17:07:47 10° WNW 17:11:02 40° N 17:14:17 10° ENE visible
01 Dec -2.9 18:44:48 10° WNW 18:47:25 46° NW 18:47:25 46° NW visible
02 Dec -3.5 17:57:37 10° WNW 18:00:57 52° NNE 18:02:15 31° ENE visible
02 Dec -0.6 19:34:32 10° WNW 19:35:15 15° WNW 19:35:15 15° WNW visible
03 Dec -3.2 17:10:23 10° WNW 17:13:40 45° N 17:16:57 10° E visible
03 Dec -3.1 18:47:16 10° WNW 18:50:10 56° WSW 18:50:10 56° WSW visible
04 Dec -3.8 18:00:02 10° WNW 18:03:27 88° NNE 18:05:13 26° ESE visible
04 Dec -0.5 19:37:25 10° W 19:38:14 14° WSW 19:38:14 14° WSW visible
05 Dec -3.7 17:12:49 10° WNW 17:16:13 66° NNE 17:19:35 10° ESE visible
05 Dec -2.0 18:49:52 10° W 18:52:52 29° SW 18:53:27 27° SSW visible
06 Dec -2.6 18:02:30 10° WNW 18:05:45 43° SSW 18:08:54 10° SE visible
07 Dec -3.3 17:15:12 10° WNW 17:18:34 65° SSW 17:21:56 10° SE visible
07 Dec -0.6 18:53:23 10° WSW 18:54:51 12° SW 18:56:19 10° SSW visible
08 Dec -0.9 18:05:20 10° W 18:07:49 19° SW 18:10:16 10° S visible
09 Dec -1.5 17:17:44 10° W 17:20:43 28° SW 17:23:40 10° SSE visible
